Simultaneous Nadir Overpasses (SNOs) Predictions

Prediction of SNOs between FY3D and LANDSAT-8 Satellite Orbit:

Table of predicted SNOs for the next 14.0 days since TLE Epoch: 12/23/2023
Index Date (FY3D) Time (FY3D) Lat,Lon (FY3D) SZA (FY3D ) Date (LANDSAT-8) Time (LANDSAT-8) Lat,Lon (LANDSAT-8) SZA (LANDSAT-8 ) Distance(km) Time Diff (sec)
1 12/24/2023 08:41:17 74.19, 50.96 97.53 12/24/2023 08:42:26 74.08, 52.70 97.43 54.20 69
2 12/24/2023 09:31:51 -73.69,-140.47 82.97 12/24/2023 09:32:01 -73.70,-140.51 82.96 1.57 10
3 12/24/2023 10:22:37 73.64, 26.95 96.99 12/24/2023 10:21:28 73.61, 26.95 96.95 3.43 69
4 12/27/2023 00:08:17 -74.47, -1.46 82.28 12/27/2023 00:09:22 -74.37, 1.62 82.35 92.70 65
5 12/27/2023 00:58:48 73.70, 167.81 96.97 12/27/2023 00:59:00 73.72, 167.78 96.98 2.01 12
6 12/27/2023 01:49:31 -73.64, -24.72 83.10 12/27/2023 01:48:29 -73.65, -24.73 83.09 1.60 62
7 12/29/2023 16:25:44 -73.75, 116.01 83.12 12/29/2023 16:26:02 -73.72, 116.03 83.15 2.62 18
8 12/29/2023 17:16:29 73.66, -76.48 96.80 12/29/2023 17:15:28 73.68, -76.41 96.82 3.26 61
9 01/01/2024 07:52:41 73.74, 64.34 96.69 01/01/2024 07:53:01 73.72, 64.29 96.67 2.50 20
10 01/01/2024 08:43:24 -73.67,-128.17 83.39 01/01/2024 08:42:30 -73.66,-128.21 83.40 1.44 54
11 01/03/2024 23:19:36 -73.75, 12.64 83.55 01/03/2024 23:20:01 -73.78, 12.65 83.52 3.12 25
12 01/04/2024 00:10:21 73.68,-179.88 96.39 01/04/2024 00:09:28 73.68,-179.92 96.38 1.26 53



Historial Predications of SNOs between FY3D and LANDSAT-8
